Weather observations for the past three days for
Lander
Imperial (Metric)
Date Time (mdt) Wind (mph) Vis. (mi.) Weather Sky Cond. Temperature (ºF) Relative Humidity Wind Chill (°F) Heat Index (°F) Pressure Precipitation (in)
Air Dwpt 6 hour altimeter (in) sea level (mb) 1 hr 3 hr 6 hr
Max. Min.
23 23:53 SW 8 10.00 Fair CLR 72 35.1 93 71.1 26% 29.99 1006.9
23 22:53 SW 17 10.00 Fair CLR 75.9 35.1 23% 77 29.99 1007.2
23 21:53 SW 15 10.00 Fair CLR 78.1 33.1 19% 77 29.98 1007.0
23 20:53 SW 12 10.00 Fair CLR 79 37 22% 78 29.96 1006.9
23 19:53 W 9 10.00 Fair CLR 88 33.1 14% 84 29.95 1006.0
23 18:53 W 14 G 26 10.00 Fair CLR 91 30 11% 87 29.95 1005.9
23 17:53 W 16 G 22 10.00 Fair CLR 91.9 30 97 88 11% 88 29.94 1005.9
23 16:53 W 20 G 30 10.00 Fair CLR 95 28.9 9% 90 29.96 1005.8
23 15:53 W 10 G 20 10.00 Fair CLR 96.1 30 10% 91 29.97 1005.5
23 14:53 W 15 G 26 10.00 Fair CLR 96.1 28.9 9% 91 29.98 1006.4
23 13:53 W 16 G 28 10.00 Fair CLR 95 30 10% 90 30 1007.0
23 12:53 Vrbl 7 10.00 Fair CLR 93.9 34 12% 89 30.01 1007.5
23 11:53 W 8 10.00 Fair CLR 89.1 45 91 60.1 22% 86 30.03 1008.4
23 10:53 Calm 10.00 Fair CLR 82 44.1 26% 80 30.05 1009.4
23 09:53 N 5 10.00 Fair CLR 77 39.9 26% 77 30.07 1010.7
23 08:53 Calm 10.00 Fair CLR 71.1 42.1 35% 30.08 1011.4
23 07:53 Calm 10.00 Fair CLR 66.9 39.9 37% 30.09 1011.1
23 06:53 NW 8 10.00 Fair CLR 63 39.9 43% 30.09 1011.1
23 05:53 NW 7 10.00 Fair CLR 62.1 37.9 72 62.1 41% 30.08 1010.9
23 04:53 Vrbl 5 10.00 Fair CLR 66 36 33% 30.07 1010.1
23 03:53 SW 10 10.00 Fair CLR 71.1 35.1 27% 30.06 1009.7
23 02:53 W 13 10.00 Fair CLR 68 36 31% 30.07 1010.2
23 01:53 SW 13 G 20 10.00 Fair CLR 70 35.1 28% 30.08 1010.2
23 00:53 Vrbl 6 10.00 Fair CLR 69.1 35.1 29% 30.08 1010.8
22 23:53 Calm 10.00 Fair CLR 71.1 34 89.1 70 26% 30.09 1011.3
22 22:53 SW 13 10.00 Fair CLR 75 32 21% 76 30.09 1011.5
22 21:53 SW 14 10.00 Fair CLR 72 34 25% 30.08 1011.8
22 20:53 W 10 10.00 Fair CLR 73.9 37.9 27% 30.05 1010.9
22 19:53 W 7 10.00 Fair CLR 84 36 18% 81 30.04 1009.8
22 18:53 NW 6 10.00 Fair CLR 88 28.9 12% 84 30.02 1009.7
22 17:53 NW 7 10.00 Fair CLR 89.1 28.9 90 77 11% 85 30.02 1009.9
22 16:53 W 14 G 23 10.00 Fair CLR 89.1 30 12% 85 30.03 1010.1
22 15:53 W 12 G 23 10.00 Fair CLR 89.1 30 12% 85 30.05 1010.7
22 14:53 NW 15 G 21 10.00 Fair CLR 88 28.9 12% 84 30.07 1011.2
22 13:53 NW 9 G 20 10.00 Fair CLR 87.1 30 13% 83 30.08 1011.7
22 12:53 Vrbl 3 10.00 Fair CLR 82 46 28% 80 30.1 1012.8
22 11:53 Vrbl 5 10.00 Fair CLR 77 50 77 46 39% 78 30.12 1014.0
22 10:53 Vrbl 3 10.00 Fair CLR 71.1 48.9 46% 30.13 1014.5
22 09:53 E 3 10.00 Fair CLR 66.9 51.1 57% 30.14 1015.3
22 08:53 SE 3 10.00 Fair CLR 64 50 60% 30.14 1015.3
22 07:53 Calm 10.00 Fair CLR 59 52 78% 30.14 1015.4
22 06:53 NW 5 10.00 Fair CLR 52 48 86% 30.13 1015.8
22 05:53 SE 3 10.00 Fair CLR 48.9 46 55 48 90% 30.13 1016.5
22 04:53 SW 7 10.00 Fair CLR 50 46 86% 48 30.12 1015.8
22 03:53 Calm 10.00 Fair CLR 50 46.9 89% 30.12 1016.0
22 02:53 E 3 10.00 Fair CLR 51.1 48 89% 30.13 1014.9
22 01:53 W 9 10.00 Fair CLR 53.1 48 83% 30.14 1014.7
22 00:53 W 8 10.00 Fair CLR 54 50 87% 30.14 1014.8
21 23:53 NE 3 10.00 Fair CLR 53.1 48.9 64 53.1 86% 30.13 1014.7
21 22:53 NW 7 10.00 Fair CLR 57 51.1 81% 30.12 1014.6
21 21:53 SW 6 10.00 Fair CLR 59 51.1 75% 30.11 1014.4
21 20:53 NW 8 10.00 Mostly Cloudy BKN110 61 51.1 70% 30.13 1015.1
21 19:53 NW 13 G 21 10.00 Fair CLR 62.1 51.1 67% 30.1 1013.8
21 18:53 SE 14 G 24 10.00 Fair CLR 64 48.9 58% 30.02 1011.2
21 17:53 SE 18 G 29 10.00 Fair CLR 60.1 51.1 77 57 72% 30.03 1011.9 0.1
21 16:53 SE 15 G 23 10.00 Overcast OVC100 61 48 63% 30.03 1011.7
21 15:53 W 10 G 28 10.00 Thunderstorm Light Rain SCT070 OVC100 61 48 63% 30.06 1012.6 0.1
21 14:53 NW 24 G 31 10.00 Thunderstorm in Vicinity and Breezy FEW080 73.9 50 43% 30.02 1010.0
21 13:53 NW 8 10.00 Fair CLR 75.9 48.9 39% 78 30.02 1009.8
21 12:53 Calm 10.00 A Few Clouds FEW110 73 48 41% 30.06 1011.2
21 11:53 Calm 10.00 Fair CLR 73 48 73.9 55 41% 30.08 1011.8
21 10:53 SE 5 10.00 Fair CLR 69.1 48.9 49% 30.1 1012.7
21 09:53 Calm 10.00 Fair CLR 63 48 58% 30.12 1013.9
21 08:53 Calm 10.00 Fair CLR 62.1 46 56% 30.13 1013.9
21 07:53 W 3 10.00 Fair CLR 61 46.9 60% 30.11 1013.3
21 06:53 E 6 10.00 Fair CLR 59 45 60% 30.1 1012.7
21 05:53 N 6 10.00 Fair CLR 57.9 44.1 66.9 57 60% 30.09 1012.4
21 04:53 NW 5 10.00 Fair CLR 61 43 52% 30.1 1012.4
21 03:53 W 5 10.00 Mostly Cloudy BKN060 62.1 42.1 48% 30.14 1013.5
21 02:53 NW 9 10.00 Mostly Cloudy BKN060 62.1 44.1 52% 30.12 1013.2
21 01:53 W 6 10.00 Fair CLR 62.1 48.9 62% 30.12 1013.4
21 00:53 SW 7 10.00 Fair CLR 64 48.9 58% 30.12 1013.3
Date Time (mdt) Wind (mph) Vis. (mi.) Weather Sky Cond. Air Dwpt Max. Min. Relative Humidity Wind Chill (°F) Heat Index (°F) altimeter (in) sea level (mb) 1 hr 3 hr 6 hr
6 hour
Temperature (ºF) Pressure Precipitation (in)